Weather History for Shaw AFB, SC

Change the Weather History Date:

Saturday, May 11, 2013

  Actual Average Record
Temperature  
Mean Temperature 73 °F -  
Max Temperature 83 °F 79 °F 88 °F (2007)
Min Temperature 64 °F 56 °F 42 °F (1997)
Cooling Degree Days 8    
Growing Degree Days 23 (Base 50)    
Moisture  
Dew Point 59 °F    
Average Humidity 61    
Maximum Humidity 88    
Minimum Humidity 41    
Precipitation  
Precipitation 0.00 in - - ()
Sea Level Pressure  
Sea Level Pressure 29.92 in    
Wind  
Wind Speed 9 mph (SW)    
Max Wind Speed 15 mph    
Max Gust Speed 18 mph    
Visibility 10 miles    
Events      
Averages and records for this station are not official NWS values.
T = Trace of Precipitation, MM = Missing Value Source: NWS Daily Summary

Daily Weather History Graph

Daily Weather History Graph

Search for Another Location

Airport:

Trip Planner

Search our weather history database for the weather conditions in past years. The results will help you decide how hot, cold, wet, or windy it might be!

Date:

Astronomy

May. 11, 2013 Rise Set
Actual Time 6:23 AM EDT 8:13 PM EDT
Civil Twilight 5:56 AM EDT 8:40 PM EDT
Nautical Twilight 5:22 AM EDT 9:14 PM EDT
Astronomical Twilight 4:47 AM EDT 9:49 PM EDT
Moon 7:31 AM EDT (5/11) 9:51 PM EDT (5/11)
Length of Visible Light 14h 44m
Length of Day
13h 50m
Waxing Crescent, 3% of the Moon is Illuminated
May 11
Waxing Crescent
May 18
First Quarter
May 25
Full
May 31
Last Quarter
Jun 8
New

Hourly Weather History & Observations

Time (EDT) Temp. Heat Index Dew Point Humidity Pressure Visibility Wind Dir Wind Speed Gust Speed Precip Events Conditions
12:58 AM 70.7 °F - 54.7 °F 57% 30.00 in 10.0 mi SSW 11.5 mph - N/A   Scattered Clouds
1:58 AM 69.6 °F - 55.4 °F 61% 29.99 in 10.0 mi SSW 8.1 mph - N/A   Clear
2:58 AM 68.2 °F - 57.0 °F 67% 29.98 in 10.0 mi SSW 9.2 mph - N/A   Mostly Cloudy
3:58 AM 66.9 °F - 57.7 °F 72% 29.97 in 10.0 mi SSW 6.9 mph - N/A   Scattered Clouds
4:58 AM 65.7 °F - 58.8 °F 79% 29.96 in 10.0 mi South 5.8 mph - N/A   Clear
5:58 AM 65.1 °F - 59.9 °F 83% 29.95 in 10.0 mi South 5.8 mph - N/A   Clear
6:58 AM 64.9 °F - 61.0 °F 87% 29.95 in 10.0 mi South 4.6 mph - N/A   Clear
7:57 AM 66.2 °F - 62.6 °F 88% 29.96 in 10.0 mi South 4.6 mph - N/A   Partly Cloudy
7:58 AM 66.2 °F - 62.6 °F 88% 29.96 in 10.0 mi South 4.6 mph - N/A   Partly Cloudy
8:58 AM 70.7 °F - 60.8 °F 71% 29.95 in 10.0 mi SW 8.1 mph - N/A   Mostly Cloudy
9:58 AM 74.3 °F - 59.4 °F 60% 29.95 in 10.0 mi WSW 8.1 mph - N/A   Scattered Clouds
10:58 AM 76.1 °F - 58.3 °F 54% 29.95 in 10.0 mi SW 10.4 mph - N/A   Scattered Clouds
11:58 AM 79.3 °F - 58.3 °F 48% 29.93 in 10.0 mi SSW 6.9 mph - N/A   Scattered Clouds
12:58 PM 79.9 °F - 56.1 °F 44% 29.92 in 10.0 mi WSW 9.2 mph - N/A   Scattered Clouds
1:58 PM 81.1 °F 81.2 °F 57.6 °F 44% 29.90 in 10.0 mi SW 10.4 mph 17.3 mph N/A   Scattered Clouds
2:19 PM 82.4 °F 82.0 °F 57.2 °F 42% 29.90 in 10.0 mi West 12.7 mph 17.3 mph N/A   Scattered Clouds
2:58 PM 82.9 °F 82.7 °F 58.1 °F 43% 29.88 in 10.0 mi SW 10.4 mph 18.4 mph N/A   Scattered Clouds
3:58 PM 82.9 °F 82.4 °F 57.0 °F 41% 29.87 in 10.0 mi SW 15.0 mph - N/A   Partly Cloudy
4:58 PM 81.9 °F 81.7 °F 57.4 °F 43% 29.87 in 10.0 mi WSW 13.8 mph - N/A   Partly Cloudy
5:58 PM 80.6 °F 81.2 °F 59.9 °F 49% 29.85 in 10.0 mi SW 11.5 mph - N/A   Clear
6:58 PM 78.3 °F - 60.3 °F 54% 29.85 in 10.0 mi SSW 11.5 mph - N/A   Clear
7:58 PM 76.5 °F - 59.4 °F 55% 29.85 in 10.0 mi SSW 11.5 mph - N/A   Clear
8:58 PM 74.1 °F - 59.7 °F 61% 29.87 in 10.0 mi SW 9.2 mph - N/A   Partly Cloudy
9:58 PM 73.9 °F - 59.9 °F 61% 29.88 in 10.0 mi SSW 10.4 mph - N/A   Mostly Cloudy
10:58 PM 73.4 °F - 60.3 °F 63% 29.87 in 10.0 mi SW 9.2 mph - N/A   Mostly Cloudy
11:58 PM 72.0 °F - 60.1 °F 66% 29.86 in 10.0 mi SW 6.9 mph - N/A   Mostly Cloudy